Total_Precipitation_Accumulation
0.14 0.17 0.14 0.12 0.10 0.12 0.13 0.09 0.05 0.06 0.10 0.08 0.03 0.02 0.02 0.03 0.03 0.03 0.04 0.05 0.07 0.09 0.10 0.12 0.13 0.13 0.13 0.15 0.15 0.13 0.12 0.10 0.11 0.11 0.09 0.07 0.06 0.05 0.06 0.07 0.08 0.08 0.08
0.17 0.16 0.14 0.15 0.14 0.15 0.16 0.16 0.13 0.07 0.06 0.06 0.03 0.02 0.03 0.05 0.05 0.05 0.06 0.07 0.09 0.11 0.17 0.19 0.18 0.16 0.16 0.18 0.20 0.19 0.18 0.18 0.19 0.19 0.18 0.16 0.13 0.12 0.12 0.12 0.12 0.11 0.10
0.14 0.16 0.19 0.22 0.20 0.19 0.17 0.17 0.16 0.11 0.08 0.07 0.08 0.08 0.07 0.06 0.07 0.07 0.06 0.07 0.10 0.13 0.14 0.17 0.18 0.19 0.18 0.22 0.23 0.23 0.24 0.23 0.23 0.22 0.23 0.24 0.23 0.20 0.20 0.20 0.19 0.17 0.15
0.19 0.25 0.29 0.31 0.31 0.29 0.28 0.27 0.24 0.21 0.19 0.17 0.17 0.17 0.13 0.12 0.12 0.12 0.11 0.11 0.12 0.13 0.14 0.14 0.14 0.15 0.15 0.16 0.17 0.20 0.20 0.21 0.24 0.26 0.28 0.29 0.29 0.29 0.27 0.27 0.26 0.24 0.22
0.33 0.41 0.46 0.48 0.49 0.48 0.47 0.42 0.38 0.34 0.32 0.30 0.23 0.21 0.16 0.14 0.15 0.15 0.16 0.16 0.16 0.14 0.11 0.10 0.11 0.11 0.10 0.11 0.11 0.12 0.13 0.15 0.21 0.23 0.23 0.26 0.30 0.32 0.29 0.28 0.29 0.29 0.27
0.67 0.73 0.73 0.75 0.73 0.69 0.63 0.53 0.48 0.42 0.35 0.31 0.24 0.18 0.15 0.14 0.14 0.13 0.12 0.10 0.08 0.07 0.05 0.05 0.05 0.05 0.06 0.05 0.05 0.06 0.07 0.08 0.11 0.14 0.15 0.18 0.24 0.26 0.25 0.23 0.23 0.25 0.26
1.15 1.13 1.06 1.03 0.96 0.92 0.85 0.77 0.63 0.52 0.44 0.36 0.29 0.22 0.15 0.12 0.10 0.08 0.07 0.05 0.05 0.04 0.03 0.03 0.03 0.03 0.02 0.03 0.02 0.02 0.04 0.05 0.06 0.10 0.13 0.15 0.19 0.21 0.21 0.20 0.21 0.21 0.23
1.64 1.57 1.46 1.40 1.29 1.17 1.02 0.88 0.76 0.64 0.52 0.41 0.34 0.29 0.22 0.14 0.09 0.07 0.06 0.05 0.04 0.03 0.02 0.02 0.02 0.02 0.02 0.01 0.01 0.02 0.02 0.03 0.04 0.08 0.14 0.21 0.24 0.24 0.24 0.23 0.22 0.23 0.23
2.07 1.94 1.77 1.62 1.48 1.30 1.16 0.99 0.81 0.67 0.53 0.41 0.34 0.29 0.25 0.19 0.11 0.08 0.07 0.05 0.04 0.03 0.02 0.02 0.02 0.02 0.01 0.01 0.01 0.02 0.02 0.02 0.03 0.05 0.10 0.18 0.23 0.24 0.24 0.25 0.25 0.28 0.29
2.07 1.87 1.77 1.72 1.55 1.28 1.01 0.79 0.62 0.49 0.39 0.31 0.24 0.19 0.17 0.15 0.14 0.11 0.07 0.05 0.04 0.04 0.03 0.03 0.02 0.02 0.01 0.01 0.03 0.03 0.03 0.02 0.03 0.03 0.05 0.09 0.12 0.16 0.21 0.28 0.32 0.34 0.35
1.86 1.64 1.50 1.35 1.11 0.83 0.59 0.43 0.33 0.27 0.23 0.20 0.18 0.16 0.15 0.12 0.11 0.11 0.09 0.05 0.04 0.03 0.03 0.03 0.03 0.02 0.01 0.01 0.04 0.07 0.05 0.04 0.03 0.03 0.05 0.08 0.10 0.12 0.17 0.22 0.28 0.32 0.34
1.37 1.10 0.88 0.67 0.52 0.40 0.29 0.24 0.20 0.18 0.16 0.14 0.12 0.10 0.08 0.08 0.07 0.08 0.08 0.06 0.04 0.03 0.02 0.02 0.02 0.02 0.01 0.01 0.03 0.04 0.05 0.05 0.05 0.04 0.04 0.04 0.05 0.07 0.09 0.15 0.21 0.27 0.33
0.87 0.69 0.53 0.41 0.31 0.24 0.18 0.14 0.11 0.09 0.07 0.06 0.06 0.05 0.05 0.04 0.04 0.04 0.05 0.05 0.05 0.03 0.02 0.01 0.01 0.01 0.01 0.01 0.01 0.02 0.04 0.05 0.04 0.03 0.02 0.02 0.02 0.03 0.05 0.08 0.12 0.18 0.26
0.63 0.47 0.34 0.25 0.20 0.16 0.13 0.10 0.08 0.06 0.06 0.05 0.05 0.05 0.04 0.03 0.03 0.03 0.03 0.04 0.04 0.02 0.01 0.01 0.00 0.00 0.00 0.00 0.01 0.01 0.04 0.05 0.04 0.04 0.03 0.02 0.02 0.02 0.03 0.04 0.06 0.08 0.12
0.33 0.26 0.21 0.17 0.13 0.11 0.10 0.09 0.08 0.06 0.05 0.04 0.03 0.03 0.03 0.02 0.02 0.02 0.02 0.04 0.08 0.08 0.04 0.01 0.00 0.00 0.00 0.00 0.01 0.03 0.05 0.05 0.05 0.05 0.05 0.03 0.03 0.03 0.03 0.04 0.05 0.06 0.07
0.24 0.20 0.17 0.13 0.10 0.07 0.05 0.04 0.04 0.03 0.02 0.02 0.02 0.02 0.02 0.02 0.03 0.03 0.04 0.05 0.07 0.12 0.10 0.03 0.01 0.00 0.01 0.01 0.02 0.04 0.05 0.05 0.06 0.06 0.06 0.06 0.05 0.05 0.05 0.06 0.07 0.08 0.08
0.16 0.13 0.11 0.09 0.08 0.06 0.05 0.04 0.03 0.03 0.02 0.03 0.03 0.03 0.04 0.05 0.06 0.05 0.05 0.06 0.06 0.09 0.11 0.05 0.02 0.02 0.05 0.07 0.08 0.10 0.10 0.11 0.11 0.14 0.14 0.13 0.11 0.10 0.09 0.10 0.11 0.12 0.12
0.09 0.08 0.07 0.07 0.07 0.07 0.06 0.05 0.05 0.05 0.05 0.05 0.05 0.05 0.05 0.06 0.07 0.06 0.06 0.05 0.06 0.08 0.11 0.10 0.07 0.06 0.08 0.11 0.13 0.14 0.08 0.07 0.10 0.15 0.14 0.12 0.11 0.10 0.10 0.10 0.10 0.09 0.08
0.10 0.10 0.09 0.09 0.08 0.07 0.06 0.06 0.06 0.06 0.05 0.05 0.04 0.04 0.04 0.04 0.05 0.05 0.07 0.07 0.08 0.09 0.15 0.19 0.15 0.13 0.11 0.10 0.14 0.12 0.12 0.17 0.13 0.12 0.11 0.08 0.07 0.06 0.06 0.05 0.05 0.05 0.04
0.10 0.09 0.09 0.08 0.07 0.06 0.04 0.04 0.03 0.03 0.03 0.02 0.02 0.02 0.02 0.03 0.05 0.08 0.09 0.11 0.14 0.17 0.20 0.22 0.18 0.14 0.12 0.11 0.17 0.17 0.15 0.17 0.16 0.10 0.09 0.06 0.05 0.04 0.04 0.05 0.05 0.05 0.03
0.08 0.06 0.05 0.03 0.02 0.02 0.01 0.01 0.01 0.01 0.01 0.01 0.01 0.02 0.02 0.03 0.05 0.09 0.12 0.16 0.21 0.25 0.24 0.24 0.21 0.16 0.12 0.14 0.18 0.20 0.22 0.18 0.13 0.10 0.11 0.09 0.11 0.12 0.15 0.15 0.13 0.10 0.05
0.03 0.02 0.01 0.01 0.01 0.00 0.00 0.00 0.00 0.00 0.01 0.02 0.02 0.03 0.02 0.02 0.04 0.07 0.10 0.15 0.22 0.26 0.27 0.28 0.25 0.22 0.17 0.21 0.27 0.30 0.33 0.31 0.22 0.14 0.18 0.13 0.12 0.15 0.19 0.23 0.22 0.15 0.08
0.02 0.02 0.01 0.01 0.01 0.01 0.00 0.00 0.00 0.00 0.01 0.03 0.05 0.05 0.04 0.03 0.06 0.09 0.09 0.09 0.11 0.13 0.22 0.32 0.35 0.31 0.31 0.34 0.45 0.45 0.42 0.41 0.34 0.27 0.35 0.28 0.19 0.22 0.21 0.25 0.31 0.26 0.19
0.03 0.03 0.02 0.02 0.03 0.02 0.00 0.00 0.00 0.01 0.02 0.03 0.04 0.06 0.07 0.08 0.09 0.08 0.07 0.06 0.08 0.12 0.20 0.29 0.39 0.41 0.41 0.44 0.52 0.55 0.51 0.46 0.35 0.32 0.43 0.41 0.24 0.24 0.25 0.39 0.49 0.46 0.36
0.04 0.03 0.03 0.03 0.04 0.04 0.01 0.00 0.00 0.01 0.02 0.02 0.03 0.04 0.05 0.09 0.09 0.09 0.08 0.10 0.11 0.16 0.21 0.33 0.45 0.50 0.52 0.55 0.56 0.55 0.56 0.54 0.43 0.32 0.38 0.42 0.33 0.27 0.30 0.49 0.57 0.64 0.54
0.05 0.04 0.04 0.05 0.06 0.07 0.02 0.00 0.01 0.01 0.02 0.02 0.02 0.04 0.06 0.08 0.10 0.10 0.08 0.13 0.20 0.23 0.34 0.53 0.64 0.66 0.62 0.60 0.58 0.56 0.57 0.56 0.53 0.48 0.40 0.43 0.43 0.37 0.41 0.54 0.64 0.61 0.56